Location: La Silve
(44.2414°N, 5.8889°E)
Time: 10:08:36
(UTC+00:00)

YAOGAN 1 - Pass Details

Date: 01 December 2020
Orbit: 618 x 620 km, 97.9° (Epoch: 26 January)

Event Time Altitude Azimuth Distance (km) Brightness Sun altitude
Exits shadow 17:09:13 17° 56° (NE) 1,579 4.0 -12.3°
Drops below altitude 10° 17:11:38 10° 22° (NNE) 1,997 4.8 -12.7°
Sets 17:14:26 0° 3° (N) 2,909 5.8 -13.2°
